一网星座-0060星 (ONEWEB-0060 )

导读

ONEWEB-0060是英国OneWeb星座的低轨宽带卫星,于2020年3月21日发射升空,属于该星座第一代组网卫星。OneWeb星座旨在构建全球卫星互联网,提供覆盖全球的宽带接入服务,这颗卫星运行在1200公里高度的近地轨道,使用Ku频段提供通信服务,是OneWeb构建全球覆盖低轨卫星通信网络的重要组成部分,助力实现偏远地区网络覆盖与全球互联。

基本信息
目录编号:
45455
目录名称:
ONEWEB-0060
国际标识:
2020-020AH
轨道中心:
EARTH
卫星名称:
一网星座-0060星
卫星全名:
一网星座-0060星 (ONEWEB-0060 )
卫星状态:
在轨 (已飞行2274 天)
发射日期:
2020-03-21 UTC
国别 :
英国 (GB)
星等 :
--
轨道信息
数据来源 国际轨道数据
星历时间: 2026-06-12T11:17:50+0800
16小时前
查看轨道信息
半长轴: 7595.819km
偏心率: 0.000152
轨道倾角: 87.889°
近地点辐角 50.161°
升交点赤经 22.072°
平近点角 309.965°
近地点: 1216.527km
远地点: 1218.837km
周期: 109.805分钟
每日圈数: 13.114173
详细信息
平衡模式:
三轴稳定
覆盖范围:
全球
运营商:
一网卫星公司
运营商所在国:
英国
制造商(研发单位):
一网卫星公司
制造商所在国:
英国
使用方式:
暂无
卫星简介
OneWeb卫星网络由648颗重约125公斤的微型卫星组成,运行在1200公里的轨道上。 每颗卫星都能够提供至少每秒8千兆位的吞吐量,以使用其高吞吐量的Ku频段有效载荷为家庭和移动平台提供互联网接入。该卫星仍在工作。
2D轨道图
3D轨道图
轨道高度分析图
轨道倾角分析图
轨道综合分析图
查看轨道综合分析图